Keps
Threads by month
- ----- 2024 -----
- September
- August
- July
- June
- May
- April
- March
- February
- January
- ----- 2023 -----
- December
- November
- October
- September
- August
- July
- June
- May
- April
- March
- February
- January
- ----- 2022 -----
- December
- November
- October
- September
- August
- July
- June
- May
- April
- March
- February
- January
- ----- 2021 -----
- December
- November
- October
- September
- August
- July
- June
- May
- April
- March
- February
- January
- ----- 2020 -----
- December
- November
- October
- September
- August
- July
- June
- May
- April
- March
- February
- January
- ----- 2019 -----
- December
- November
- October
- September
- August
- July
- June
- May
- April
- March
- February
- January
- ----- 2018 -----
- December
- November
- October
- September
- August
- July
- June
- May
- April
- March
- February
- January
- ----- 2017 -----
- December
- November
- October
- September
- August
- July
- June
- May
- April
- March
- February
- January
- ----- 2016 -----
- December
- November
- October
- September
- August
- July
- June
- May
- April
- March
- February
- January
- ----- 2015 -----
- December
- November
- October
- September
- August
- July
- June
- May
- April
- March
- February
- January
- ----- 2014 -----
- December
- November
- October
- September
- August
- July
- June
- May
- April
- March
- February
- January
- ----- 2013 -----
- December
- November
- October
- September
- August
- July
- June
- May
- April
- March
- February
- January
- ----- 2012 -----
- December
- November
- October
- September
- August
- July
- June
- May
- April
- March
- February
- January
- ----- 2011 -----
- December
- November
- October
- September
- August
- July
- June
- May
- April
- March
- February
- January
- ----- 2010 -----
- December
- November
- October
- September
- August
- July
- June
- May
- April
- March
- February
- January
- ----- 2009 -----
- December
- November
- October
- September
- August
- July
- June
- May
- April
- March
- February
- January
- ----- 2008 -----
- December
- November
- October
- September
- August
- July
- June
- May
- April
- March
- February
- January
- ----- 2007 -----
- December
- November
- October
- September
- August
- July
- June
- May
- April
- March
- February
- January
- ----- 2006 -----
- December
- November
- October
- September
September 2019
- 1 participants
- 6 discussions
SB KEPS @ AMSAT $ORB19269.N
2Line Orbital Elements 19269.AMSAT
HR AMSAT ORBITAL ELEMENTS FOR AMATEUR SATELLITES IN NASA FORMAT
FROM WA5QGD FORT WORTH,TX September 26, 2019
BID: ORB19269.N
DECODE 2-LINE ELSETS WITH THE FOLLOWING KEY:
1 AAAAAU 00 0 0 BBBBB.BBBBBBBB .CCCCCCCC 00000-0 00000-0 0 DDDZ
2 AAAAA EEE.EEEE FFF.FFFF GGGGGGG HHH.HHHH III.IIII JJ.JJJJJJJJKKKKKZ
KEY: A-CATALOGNUM B-EPOCHTIME C-DECAY D-ELSETNUM E-INCLINATION F-RAAN
G-ECCENTRICITY H-ARGPERIGEE I-MNANOM J-MNMOTION K-ORBITNUM Z-CHECKSUM
TO ALL RADIO AMATEURS BT
AO-07
1 07530U 74089B 19269.39968249 -.00000029 00000-0 10184-3 0 9999
2 07530 101.7563 236.0793 0012178 152.9949 6.0008 12.53640076 53015
UO-11
1 14781U 84021B 19269.14783785 .00000057 00000-0 13063-4 0 9995
2 14781 97.6068 289.1368 0008450 3.7177 356.4098 14.83107904913508
LO-19
1 20442U 90005G 19268.89323410 -.00000023 00000-0 78585-5 0 9996
2 20442 098.6553 210.7580 0011042 212.7749 147.2750 14.32933231550527
HUBBLE
1 20580U 90037B 19268.48708029 .00000428 00000-0 15114-4 0 9998
2 20580 28.4693 278.6389 0002943 106.5104 28.7762 15.09270278415831
MET-2/21
1 22782U 93055A 19268.88655885 .00000036 00000-0 19460-4 0 9995
2 22782 82.5458 84.3491 0021066 259.5492 208.8626 13.83820506316586
AO-27
1 22825U 93061C 19268.92236317 -.00000005 00000-0 15930-4 0 9995
2 22825 98.9114 259.8596 0009456 72.2355 287.9858 14.30066947356130
IO-26
1 22826U 93061D 19268.97085466 .00000001 00000-0 18284-4 0 9998
2 22826 98.9054 259.8882 0009905 61.8726 298.3456 14.30401002356345
FO-29
1 24278U 96046B 19269.59635231 -.00000017 00000-0 20636-4 0 9999
2 24278 98.5528 49.5141 0349994 341.1817 17.6649 13.53093483141311
NOAA-15
1 25338U 98030A 19269.47828987 .00000039 00000-0 34992-4 0 9994
2 25338 98.7428 290.5441 0009610 317.5954 42.4482 14.25932225111468
GO-32
1 25397U 98043D 19269.69939952 -.00000016 00000-0 12043-4 0 9991
2 25397 98.6947 208.6584 0002368 97.4702 262.6745 14.23671023102107
ISS
1 25544U 98067A 19269.80982806 -.00000054 00000-0 70930-5 0 9992
2 25544 51.6422 217.2853 0007523 88.2679 357.9145 15.50107018191022
NO-44
1 26931U 01043C 19269.68756125 -.00000010 00000-0 27801-4 0 9990
2 26931 67.0497 105.6416 0007428 270.2643 89.7607 14.30553276939277
SO-50
1 27607U 02058C 19269.71715464 -.00000011 00000-0 19365-4 0 9990
2 27607 64.5537 103.7794 0076352 237.1028 122.2712 14.75573472901799
CO-55
1 27844U 03031E 19268.99273289 .00000052 00000-0 42927-4 0 9992
2 27844 98.6855 275.7257 0010967 102.4342 257.8063 14.22195885842406
CO-57
1 27848U 03031J 19268.59094912 .00000039 00000-0 37730-4 0 9997
2 27848 98.6931 275.8504 0010775 114.0977 246.1329 14.21788776842199
RS-22
1 27939U 03042A 19269.71278855 .00000175 00000-0 39896-4 0 9991
2 27939 98.0542 43.6597 0014159 109.2514 251.0225 14.66805350855201
NOAA-18
1 28654U 05018A 19269.44756996 .00000071 00000-0 63481-4 0 9990
2 28654 99.0859 317.8631 0013335 255.8722 104.0968 14.12454233739592
CO-58
1 28895U 05043F 19268.90658751 .00000089 00000-0 26013-4 0 9994
2 28895 97.9735 48.3175 0017627 42.3044 317.9515 14.63692861741999
Falconsat-3
1 30776U 07006E 19268.20280601 .00002473 00000-0 69149-4 0 9990
2 30776 35.4346 181.8227 0003788 279.4799 80.5499 15.36515803695846
CO-65
1 32785U 08021C 19268.85135368 .00000171 00000-0 24087-4 0 9995
2 32785 097.5550 263.9138 0011674 297.7722 062.2312 14.88347595618369
AAUSAT2
1 32788U 08021F 19269.32620825 .00000651 00000-0 64769-4 0 9992
2 32788 97.4964 280.6467 0010628 219.6579 140.3865 14.94803107619806
DO-64
1 32789U 08021G 19269.67880233 .00001491 00000-0 10309-3 0 9995
2 32789 97.4553 316.2855 0013366 138.5273 221.6972 15.07126984622026
CO-66
1 32791U 08021J 19268.97100524 .00000250 00000-0 30764-4 0 9998
2 32791 97.5312 270.0938 0011783 267.2785 92.7085 14.90873131618909
RS-30
1 32953U 08025A 19269.68598644 .00000020 00000-0 75656-4 0 9999
2 32953 82.4987 82.5745 0018673 272.1179 87.7759 12.43091154514730
PRISM
1 33493U 09002B 19269.67745989 .00001060 00000-0 98198-4 0 9991
2 33493 98.1209 194.4224 0014204 206.9600 153.0884 14.96738878580107
NOAA-19
1 33591U 09005A 19269.50568160 .00000030 00000-0 41540-4 0 9994
2 33591 99.1872 263.0760 0014972 98.0189 262.2681 14.12377737548007
TISAT-1
1 36799U 10035E 19269.39917246 .00000329 00000-0 39243-4 0 9990
2 36799 98.1686 64.9382 0013469 116.7253 243.5344 14.91160836499628
JUGNU
1 37839U 11058B 19268.84436130 .00000296 00000-0 15998-4 0 9993
2 37839 19.9612 93.4984 0018922 340.2398 119.8744 14.12659079411293
SRMSAT
1 37841U 11058D 19269.04336132 .00000299 00000-0 19298-4 0 9990
2 37841 19.9712 151.1236 0011883 207.5735 290.7155 14.10639490410734
AO-71
1 37854U 11061E 19268.78542051 .00000590 00000-0 37957-4 0 9993
2 37854 101.7008 217.9565 0160353 131.3979 230.1145 15.06581987431466
HRBE
1 37855U 11061F 19268.88952697 .00000639 00000-0 39813-4 0 9993
2 37855 101.7127 215.4070 0173054 142.6397 218.6996 15.05590668431701
ALMASAT-1
1 38078U 12006B 19269.70443743 .00042324 45288-5 20821-3 0 9997
2 38078 69.4262 339.0847 0136990 105.8197 40.8589 15.69805477413149
HORYU-2
1 38340U 12025D 19268.90768236 .00000125 00000-0 26292-4 0 9998
2 38340 098.3206 310.4310 0011948 162.1925 197.9704 14.75751034385380
RS-40
1 38735U 12041C 19269.71047640 .00000039 00000-0 21310-3 0 9992
2 38735 82.4791 165.7429 0017995 19.5780 340.5986 12.42579284324978
BEESAT-3
1 39135U 13015F 19269.64866764 .00000797 00000-0 48923-4 0 9998
2 39135 64.8679 76.2694 0034357 296.7127 63.0484 15.17610829355416
BEESAT-2
1 39136U 13015G 19268.86675235 .00000639 00000-0 41975-4 0 9998
2 39136 64.8685 82.8985 0025991 302.4521 57.4092 15.17028747355219
ZACUBE-1
1 39417U 13066B 19268.81191623 .00000190 00000-0 30038-4 0 9995
2 39417 97.5628 276.7439 0060383 69.5933 291.1752 14.81150592315716
TRITON-1
1 39427U 13066M 19269.45725536 .00000159 00000-0 33483-4 0 9995
2 39427 97.6879 240.7303 0113042 205.4227 154.1393 14.67881545312972
GOMX-1
1 39430U 13066Q 19269.73268113 .00000143 00000-0 35309-4 0 9995
2 39430 97.7565 219.7423 0150265 299.2852 59.3402 14.59288021311192
LO-74
1 39440U 13066AA 19268.93980048 .00000178 00000-0 31472-4 0 9990
2 39440 097.6084 261.5465 0081492 121.9652 238.9514 14.75887969313413
AO-73
1 39444U 13066AE 19268.82506499 .00000228 00000-0 34232-4 0 9999
2 39444 97.5603 278.7959 0059444 63.1371 297.5903 14.81976793314615
SPROUT
1 39770U 14029E 19269.73452813 .00000649 00000-0 77814-4 0 9992
2 39770 97.8879 12.4038 0009758 114.1117 246.1165 14.87432268289705
DUCHIFAT-1
1 40021U 14033M 19268.75610968 .00000348 00000-0 41287-4 0 9997
2 40021 97.9233 193.6770 0014373 83.5752 276.7102 14.90686062286309
NANOSATCBR1
1 40024U 14033Q 19268.83533387 .00000184 00000-0 25000-4 0 9991
2 40024 97.9118 190.9220 0013702 86.8785 273.4000 14.89892163286200
EO-79
1 40025U 14033R 19269.49538102 .00000196 00000-0 26816-4 0 9994
2 40025 97.9031 189.0075 0013932 90.6995 269.5818 14.88985494286171
DTUSAT-2
1 40030U 14033W 19269.31719474 .00000228 00000-0 30478-4 0 9999
2 40030 97.8940 186.8193 0013380 87.2795 272.9953 14.88573884286071
EO-80
1 40032U 14033Y 19268.99044304 .00000217 00000-0 29376-4 0 9990
2 40032 97.8948 186.4948 0013315 88.9390 271.3352 14.88517732286012
ANTELSAT
1 40034U 14033AA 19269.62261205 .00000181 00000-0 34115-4 0 9991
2 40034 97.7464 132.4861 0059629 132.9868 227.6361 14.74136682283397
VELOX-1
1 40057U 14034E 19269.75823893 .00000232 00000-0 40012-4 0 9998
2 40057 98.2471 35.0722 0009698 273.3896 86.6208 14.77711247282540
DAURIA DX 1
1 40071U 14037C 19269.73097526 .00000054 00000-0 14530-4 0 9999
2 40071 98.4393 68.7973 0007318 266.5091 93.5284 14.81292112282068
